Weather History for Parsons, KS

Change the Weather History Date:

Tuesday, February 18, 2014

  Actual Average Record
Temperature  
Mean Temperature 54 °F -  
Max Temperature 71 °F 48 °F 71 °F (1976)
Min Temperature 37 °F 28 °F -7 °F (1993)
Degree Days  
Heating Degree Days 11    
Growing Degree Days 4 (Base 50)    
Moisture  
Dew Point 27 °F    
Average Humidity 43    
Maximum Humidity 68    
Minimum Humidity 19    
Precipitation  
Precipitation 0.00 in - - ()
Sea Level Pressure  
Sea Level Pressure 29.91 in    
Wind  
Wind Speed 8 mph (SSW)    
Max Wind Speed 22 mph    
Max Gust Speed 31 mph    
Visibility 10 miles    
Events      
Averages and records for this station are not official NWS values.
T = Trace of Precipitation, MM = Missing Value Source: NWS Daily Summary

Daily Weather History Graph

Daily Weather History Graph

Search for Another Location

Airport:

Trip Planner

Search our weather history database for the weather conditions in past years. The results will help you decide how hot, cold, wet, or windy it might be!

Date:

Astronomy

Feb. 18, 2014 Rise Set
Actual Time 7:07 AM CST 6:04 PM CST
Civil Twilight 6:40 AM CST 6:31 PM CST
Nautical Twilight 6:10 AM CST 7:01 PM CST
Astronomical Twilight 5:40 AM CST 7:32 PM CST
Moon 9:53 PM CST (2/18) 8:45 AM CST (2/18)
Length of Visible Light 11h 50m
Length of Day
10h 57m
Waning Gibbous, 87% of the Moon is Illuminated
Feb 18
Waning Gibbous
Feb 22
Last Quarter
Mar 1
New
Mar 8
First Quarter
Mar 16
Full

Hourly Weather History & Observations

Time (CST) Temp. Windchill Dew Point Humidity Pressure Visibility Wind Dir Wind Speed Gust Speed Precip Events Conditions
12:52 AM 37.9 °F 33.5 °F 26.1 °F 62% 30.06 in 10.0 mi South 5.8 mph - N/A   Clear
1:52 AM 37.9 °F 35.5 °F 24.1 °F 57% 30.05 in 10.0 mi South 3.5 mph - N/A   Clear
2:52 AM 39.0 °F 34.8 °F 25.0 °F 57% 30.03 in 10.0 mi South 5.8 mph - N/A   Clear
3:52 AM 39.0 °F 35.7 °F 25.0 °F 57% 30.01 in 10.0 mi South 4.6 mph - N/A   Clear
4:52 AM 39.0 °F 34.0 °F 26.1 °F 60% 29.99 in 10.0 mi South 6.9 mph - N/A   Clear
5:52 AM 39.9 °F 36.7 °F 25.0 °F 55% 29.96 in 10.0 mi South 4.6 mph - N/A   Clear
6:52 AM 39.9 °F 35.1 °F 25.0 °F 55% 29.94 in 10.0 mi South 6.9 mph - N/A   Clear
7:52 AM 42.1 °F 34.9 °F 26.1 °F 53% 29.93 in 10.0 mi South 13.8 mph - N/A   Clear
8:52 AM 46.0 °F 40.2 °F 27.0 °F 47% 29.95 in 10.0 mi South 12.7 mph - N/A   Clear
9:52 AM 51.1 °F - 27.0 °F 39% 29.94 in 10.0 mi South 17.3 mph 24.2 mph N/A   Clear
10:52 AM 57.0 °F - 27.0 °F 32% 29.92 in 10.0 mi South 21.9 mph 28.8 mph N/A   Clear
11:52 AM 60.1 °F - 27.0 °F 28% 29.88 in 10.0 mi South 17.3 mph 25.3 mph N/A   Clear
12:52 PM 64.9 °F - 26.1 °F 23% 29.82 in 10.0 mi SSW 17.3 mph 31.1 mph N/A   Clear
1:52 PM 66.9 °F - 27.0 °F 22% 29.79 in 10.0 mi SSW 18.4 mph 27.6 mph N/A   Clear
2:52 PM 71.1 °F - 27.0 °F 19% 29.76 in 10.0 mi SSW 12.7 mph 24.2 mph N/A   Clear
3:52 PM 71.1 °F - 26.1 °F 19% 29.76 in 10.0 mi WSW 13.8 mph - N/A   Clear
4:52 PM 71.1 °F - 26.1 °F 19% 29.78 in 10.0 mi West 9.2 mph 23.0 mph N/A   Clear
5:52 PM 62.1 °F - 27.0 °F 26% 29.80 in 10.0 mi WNW 3.5 mph - N/A   Clear
6:52 PM 46.9 °F - 28.0 °F 48% 29.85 in 10.0 mi North 4.6 mph - N/A   Clear
7:52 PM 44.1 °F - 28.0 °F 53% 29.88 in 9.0 mi Calm Calm - N/A   Clear
8:52 PM 37.9 °F - 28.0 °F 68% 29.90 in 10.0 mi Calm Calm - N/A   Clear
9:52 PM 44.1 °F 39.5 °F 28.0 °F 53% 29.94 in 10.0 mi NNW 8.1 mph - N/A   Clear
10:52 PM 46.9 °F - 28.0 °F 48% 29.97 in 10.0 mi North 8.1 mph - N/A   Clear
11:52 PM 50.0 °F - 28.0 °F 43% 29.99 in 10.0 mi North 3.5 mph - N/A   Clear